Powrót do katalogu

SL-12 R/B

AUX MOTOR

AktywnyHEO
NORAD 13609·ROCKET BODY·🇷🇺 Russia

Wystrzelony Oct 12, 1982 z Baikonur Cosmodrome

Loading…

Następne Przeloty (najbliższe 24 godziny)

TLE

ŚwieżeSource: Space-Track

Epoka: Sep 14, 2026, 23:30 UTC

1 13609U 82100G   26257.97916704  .00010798  00000-0  11682-2 0  9990
2 13609  52.0039 255.4188 4773515  48.0080 343.9074  6.03170128820014

Śledź SL-12 R/B w czasie rzeczywistym z AllMySat

Download on the App Store